星链-36841(STARLINK-36841)

导读

STARLINK-36841(NORAD编号67960)是SpaceX星链(Starlink)星座中的第二代低轨互联网卫星,隶属于美国SpaceX公司的星链互联网项目。该卫星运行在近地轨道,旨在为全球提供高速低延迟宽带互联网服务,尤其覆盖偏远地区和网络基础设施匮乏区域。 SpaceX在2026年计划将包括该卫星在内的4400颗星链卫星轨道高度从550公里降至480公里,以此提升太空安全,降低碰撞风险和太空碎片产生概率,减少故障卫星在轨停留时间,应对近地轨道日益拥挤带来的潜在威胁。

Basic Information
目录编号:
67960
目录名称:
STARLINK-36841
国际标识:
2026-037AE
轨道中心:
EARTH
卫星名称:
星链-36841
卫星全名:
星链-36841(STARLINK-36841)
卫星状态:
在轨 (已飞行193 天)
发射日期:
2026-02-24 UTC
国别 :
美国 (US)
星等 :
--
Orbit Information
数据来源 国际轨道数据 AOE轨道数据
星历时间 2026-09-05T10:45:50+0800
10小时前
查看轨道信息
2026-08-31T02:00:00+0800
5天前
查看轨道信息
半长轴 6861.179km 6861.209km
偏心率 0.000097 0.0001384
轨道倾角 42.996° 42.998°
近地点辐角 238.327° 314.568°
升交点赤经 257.229° 287.539°
平近点角 121.749° 26.413°
近地点 482.376km 482.122km
远地点 483.708km 484.022km
周期 94.267分钟 94.267分钟
每日圈数 15.275825 15.275725
Detailed Information
固有亮度:
5
最大亮度:
2.5
卫星平台:
Starlink V1.0
覆盖范围:
全球
运营商:
太空探索技术公司
运营商所在国:
美国
制造商(研发单位):
太空探索技术公司
制造商所在国:
美国
使用方式:
暂无
Satellite Introduction
Starlink 计划是 SpaceX 推出的全球卫星互联网项目,通过发射低轨道卫星,为全球尤其是偏远地区提供高速、低延迟的互联网服务。自 2019 年起,Starlink 已部署数千颗卫星,旨在缩小全球数字鸿沟,推动互联网普及。该项目还为军事、航空等行业提供通信支持,带来广泛经济效益。
2D Orbit Map
3D Orbit Map
Orbit Altitude Analysis Chart
Orbit Inclination Analysis Chart
Orbit Comprehensive Analysis Chart
View Comprehensive Chart